Regional Weather Roundup
Issued by NWS Cleveland, OH

Home | Current Version | Previous Version | Graphics & Text | Print | Product List | Glossary On
Versions: 1 2 3 4 5 6 7 8 9 10 11 12 13 14 15 16 17 18 19 20 21 22 23 24 25 26 27 28 29 30 31 32 33 34 35 36 37 38 39 40 41 42 43 44 45 46 47 48 49 50
369
ASUS41 KCLE 190710
RWRCLE
OHIO REGIONAL WEATHER ROUNDUP
NATIONAL WEATHER SERVICE CLEVELAND, OH
300 AM EDT SAT AUG 19 2017

NOTE: "FAIR" INDICATES FEW OR NO CLOUDS BELOW 12,000 FEET WITH NO
SIGNIFICANT WEATHER AND/OR OBSTRUCTIONS TO VISIBILITY.

OHZ001>008-015>018-024>027-034-035-043-044-190800-
   NORTHWEST OHIO

CITY           SKY/WX    TMP DP  RH WIND       PRES   REMARKS
DEFIANCE       CLOUDY    64  61  90 CALM      29.90S
FINDLAY        PTCLDY    66  61  84 CALM      29.91R
TOLEDO EXPRESS CLOUDY    64  64 100 CALM      29.90S
TOLEDO EXEC    MOCLDY    66  64  93 CALM      29.91S
LIMA           PTCLDY    66  64  93 SW5       29.92S
$$

OHZ009>014-019>023-028>033-038-089-190800-
   NORTHEAST OHIO

CITY           SKY/WX    TMP DP  RH WIND       PRES   REMARKS
CLE-HOPKINS    PTCLDY    68  64  87 SW5       29.92S
CLE-LAKEFRONT  MOCLDY    71  64  78 SW8       29.89S
CUY CO. ARPT   NOT AVBL
LORAIN-ELYRIA  CLEAR     63  57  81 CALM      29.91F
ASHTABULA      MOCLDY    64  64 100 SW3       29.90S
AKRON-CANTON   CLEAR     66  60  81 SW3       29.92F
WOOSTER        CLEAR     59  58  96 CALM      29.93S
MANSFIELD      CLEAR     66  62  87 SW6       29.93F
YOUNGSTOWN     PTCLDY    64  62  93 SW5       29.91F
$$

OHZ042-051>053-060>062-070>072-077>081-190800-
  SOUTHWEST OHIO

CITY           SKY/WX    TMP DP  RH WIND       PRES   REMARKS
CINC-COVINGTON CLOUDY    67  67 100 SW3       29.95F
CINC-LUNKEN    PTCLDY    66  66 100 CALM      29.95S FOG
HAMILTON       CLOUDY    67  67 100 CALM      29.94F
DAYTON         CLOUDY    67  63  87 W7        29.94F
WRIGHT-PAT AFB CLOUDY    68  66  93 S3        29.93F
DAYTON GENERAL CLOUDY    69  63  81 CALM      29.94F
WILMINGTON     CLEAR     65  65 100 CALM      29.95S
$$

OHZ036-037-039>041-045>050-054>059-063>069-073>076-082>088-190800-
  CENTRAL AND SOUTHEAST OHIO

CITY           SKY/WX    TMP DP  RH WIND       PRES   REMARKS
COLUMBUS       PTCLDY    70  66  87 CALM      29.93S
OSU AIRPORT    CLEAR     66  65  96 W3        29.93F
BOLTON FIELD   CLEAR     64  63  98 CALM      29.94F
RICKENBACK AFB CLEAR     64  64 100 CALM      29.93F
NEWARK         FOG       63  62  97 CALM      29.93F VSB 1/2
MARION         CLEAR     64  61  90 S5        29.93F
LANCASTER      CLEAR     63  62  97 CALM      29.94F
ZANESVILLE     CLEAR     66  63  90 CALM      29.93F
NEW PHILLY     NOT AVBL
$$




USA.gov is the U.S. government's official web portal to all federal, state and local government web resources and services.